Location: Astronomy Club of Akron Observatory
(40.9700°N, 81.5606°W)
Time: 04:34:19
(UTC-05:00)

N. Korean satellite - Visible Passes

Search period start: 15 November 2019 00:00
Search period end: 25 November 2019 00:00
Orbit: 456 x 506 km, 97.2° (Epoch: 14 November)

Date Brightness Start Highest point End Pass type
(mag) Time Alt. Az. Time Alt. Az. Time Alt. Az.
15 Nov 7.8 06:01:51 10° NNE 06:05:28 47° E 06:09:01 10° S visible
15 Nov 9.0 18:10:32 10° SSW 18:13:39 27° W 18:16:49 10° NW visible
16 Nov 9.3 05:36:59 10° NE 05:39:59 23° E 05:42:56 10° SSE visible
16 Nov 7.3 17:44:37 10° S 17:48:11 60° W 17:51:49 10° NNW visible
17 Nov 10.2 05:13:11 10° ENE 05:14:24 11° E 05:15:38 10° ESE visible
17 Nov 6.9 06:44:29 10° N 06:48:02 44° WNW 06:51:32 10° SSW visible
18 Nov 6.7 06:18:59 10° NNE 06:22:43 83° E 06:26:22 10° S visible
18 Nov 9.8 18:28:31 10° SW 18:30:58 17° W 18:33:27 10° NW visible
19 Nov 8.3 05:53:49 10° NNE 05:57:17 37° E 06:00:41 10° SSE visible
19 Nov 8.5 18:02:06 10° SSW 18:05:27 34° W 18:08:51 10° NNW visible
20 Nov 9.6 05:29:08 10° NE 05:31:46 18° E 05:34:21 10° SE visible
20 Nov 6.8 17:36:22 10° S 17:40:00 78° WSW 17:43:43 10° NNW visible
21 Nov 6.7 06:36:15 10° N 06:39:53 57° WNW 06:43:27 10° SSW visible
21 Nov 10.3 18:47:33 10° WSW 18:48:19 10° W 18:49:05 10° WNW visible
22 Nov 7.1 06:10:51 10° NNE 06:14:31 64° E 06:18:07 10° S visible
22 Nov 9.5 18:19:52 10° SW 18:22:42 21° W 18:25:36 10° NW visible
23 Nov 8.7 05:45:48 10° NE 05:49:03 29° E 05:52:15 10° SSE visible
23 Nov 8.0 17:53:42 10° S 17:57:12 44° W 18:00:47 10° NNW visible
24 Nov 9.9 05:21:23 10° ENE 05:23:29 15° E 05:25:33 10° SE visible
24 Nov 6.6 17:28:07 10° SSE 17:31:47 82° ENE 17:35:31 10° N visible
